Bozeman, MT

4:25 AM MDT on April 23, 2018 (GMT -0600)
Gallatin

Weather History for KBZN - March, 2013

Change the Weather History Date:

Saturday, March 2, 2013

  Actual Average Record
Temperature  
Mean Temperature 36 °F 32 °F  
Max Temperature 44 °F 44 °F 62 °F (1994)
Min Temperature 27 °F 19 °F -25 °F (1943)
Degree Days  
Heating Degree Days 29 34  
Month to date heating degree days 54 68  
Since 1 July heating degree days 5786 5648  
Cooling Degree Days 0 0  
Month to date cooling degree days 0 0  
Year to date cooling degree days 0 0  
Moisture  
Dew Point 28 °F    
Average Humidity 71    
Maximum Humidity 85    
Minimum Humidity 57    
Precipitation  
Precipitation 0.00 in 0.02 in 0.41 in (1982)
Month to date precipitation 0.00 0.04  
Year to date precipitation 0.31 0.95  
Snow  
Snow 0.00 in 0.20 in 4.10 in (1982)
Month to date snowfall 0.0 0.4  
Since 1 July snowfall 17.9 22.7  
Snow Depth 4.00 in    
Sea Level Pressure  
Sea Level Pressure 30.21 in    
Wind  
Wind Speed 4 mph (South)    
Max Wind Speed 9 mph    
Max Gust Speed 10 mph    
Visibility 10 miles    
Events      
T = Trace of Precipitation, MM = Missing Value Source: NWS Daily Summary

Daily Weather History Graph

Daily Weather History Graph

Search for Another Location

Airport or City:

Astronomy

Mar. 02, 2013 Rise Set
Actual Time 7:00 AM MST 6:13 PM MST
Civil Twilight 6:31 AM MST 6:43 PM MST
Nautical Twilight 5:56 AM MST 7:17 PM MST
Astronomical Twilight 5:22 AM MST 7:52 PM MST
Moon No Moon Rise 9:13 AM MST (3/2)
Length of Visible Light 12h 12m
Length of Day
11h 12m
Waning Gibbous, 73% of the Moon is Illuminated
Mar 2
Waning Gibbous
Mar 4
Last Quarter
Mar 11
New
Mar 19
First Quarter
Mar 27
Full

Hourly Weather History & Observations

Time (MST) Temp. Windchill Dew Point Humidity Pressure Visibility Wind Dir Wind Speed Gust Speed Precip Events Conditions
12:56 AM 34.0 °F 29.8 °F 28.0 °F 79% 30.35 in 10.0 mi SSE 4.6 mph - N/A   Clear
1:56 AM 34.0 °F 28.8 °F 28.0 °F 79% 30.38 in 10.0 mi South 5.8 mph - N/A   Clear
2:56 AM 30.9 °F 23.5 °F 26.1 °F 82% 30.36 in 10.0 mi North 8.1 mph - N/A   Clear
3:56 AM 30.0 °F 26.5 °F 26.1 °F 85% 30.35 in 10.0 mi West 3.5 mph - N/A   Clear
4:56 AM 30.9 °F 25.2 °F 25.0 °F 79% 30.36 in 10.0 mi South 5.8 mph - N/A   Clear
5:56 AM 30.0 °F 26.5 °F 25.0 °F 82% 30.39 in 10.0 mi SSW 3.5 mph - N/A   Scattered Clouds
6:56 AM 30.0 °F 23.2 °F 25.0 °F 82% 30.36 in 10.0 mi SSE 6.9 mph - N/A   Overcast
7:56 AM 30.0 °F - 25.0 °F 82% 30.36 in 10.0 mi Calm Calm - N/A   Mostly Cloudy
8:56 AM 30.9 °F - 26.1 °F 82% 30.36 in 10.0 mi Calm Calm - N/A   Clear
9:56 AM 36.0 °F 33.3 °F 28.0 °F 73% 30.30 in 10.0 mi SSW 3.5 mph - N/A   Clear
10:56 AM 39.0 °F - 28.0 °F 65% 30.28 in 10.0 mi Calm Calm - N/A   Clear
11:56 AM 37.9 °F - 28.9 °F 70% 30.25 in 10.0 mi Calm Calm - N/A   Clear
12:56 PM 42.1 °F - 28.9 °F 60% 30.22 in 10.0 mi Calm Calm - N/A   Clear
1:56 PM 39.0 °F 36.8 °F 30.0 °F 70% 30.18 in 10.0 mi ESE 3.5 mph - N/A   Mostly Cloudy
2:56 PM 43.0 °F 39.5 °F 30.0 °F 60% 30.15 in 10.0 mi SSW 5.8 mph - N/A   Mostly Cloudy
3:56 PM 42.1 °F - 30.0 °F 62% 30.13 in 10.0 mi Calm Calm - N/A   Overcast
4:56 PM 42.1 °F 40.2 °F 30.9 °F 65% 30.09 in 10.0 mi South 3.5 mph - N/A   Clear
5:56 PM 44.1 °F 42.5 °F 30.0 °F 58% 30.06 in 10.0 mi SSW 3.5 mph - N/A   Clear
6:56 PM 36.0 °F 29.6 °F 30.0 °F 79% 30.07 in 10.0 mi SE 8.1 mph - N/A   Clear
7:56 PM 36.0 °F 32.1 °F 30.0 °F 79% 30.06 in 10.0 mi SE 4.6 mph - N/A   Clear
8:56 PM 36.0 °F 31.1 °F 28.9 °F 76% 30.03 in 10.0 mi SE 5.8 mph - N/A   Clear
9:56 PM 36.0 °F 31.1 °F 28.9 °F 76% 30.00 in 10.0 mi South 5.8 mph - N/A   Clear
10:56 PM 36.0 °F 29.6 °F 28.9 °F 76% 29.95 in 10.0 mi SSE 8.1 mph - N/A   Mostly Cloudy
11:56 PM 37.9 °F 35.5 °F 28.0 °F 68% 29.93 in 10.0 mi SE 3.5 mph - N/A   Mostly Cloudy